GFSSW_925_thetae_000.txt.gz
Theta_e
311 311 312 312 312 313 313 313 313 313 313 314 313 314 315 314 313 312 313 313 313 313 314 314 313 314 316 318 317 316 321 321 320 318 319 313 314 311 308 312 310 310 310 306 305
310 310 310 310 311 311 311 312 312 312 313 313 313 314 314 315 314 312 312 312 313 313 313 314 316 316 319 318 316 318 320 320 317 316 317 314 314 314 312 312 311 310 307 302 303
309 309 309 309 309 309 310 310 311 311 312 312 314 313 313 314 316 315 312 312 312 313 313 312 313 315 318 317 317 316 320 316 316 315 314 315 313 312 314 315 315 315 314 304 303
310 309 309 309 309 309 309 309 309 310 310 311 314 313 313 315 318 312 312 312 312 312 312 312 315 318 320 319 315 318 315 315 316 314 313 314 312 312 312 316 312 312 310 305 305
310 310 311 310 310 310 309 308 308 309 309 310 313 313 314 317 317 313 313 312 312 312 312 313 317 317 321 316 315 317 315 314 315 313 313 310 313 314 313 313 312 307 305 306 305
310 310 310 311 310 310 309 309 308 308 308 309 313 313 314 315 313 313 312 311 311 311 310 311 315 314 316 317 317 314 314 315 313 313 313 313 315 310 315 308 310 307 307 307 306
310 310 310 310 310 310 309 309 308 308 307 310 313 313 314 315 313 312 310 310 310 310 311 309 311 314 315 314 311 312 316 316 314 313 313 311 315 314 315 306 309 307 308 306 306
311 310 309 309 309 308 308 308 308 307 308 313 312 314 316 313 313 311 310 309 309 309 309 308 309 312 313 311 312 315 314 319 315 313 312 313 317 317 314 309 312 311 308 305 304
311 310 309 307 306 307 306 307 307 308 312 313 313 314 316 313 312 312 309 309 308 308 308 308 310 313 312 317 318 317 319 318 316 312 313 314 316 316 311 308 311 312 310 306 304
310 310 309 307 304 305 305 306 307 312 314 313 312 315 312 313 311 311 308 308 309 310 311 312 313 316 315 318 316 318 318 317 316 314 311 314 314 315 314 312 312 313 313 308 304
310 310 310 308 304 306 306 307 311 311 311 315 313 313 309 311 311 310 307 308 309 310 313 312 316 317 317 317 316 315 316 317 318 311 312 314 314 314 314 313 313 313 313 310 305
311 310 310 310 308 309 308 310 311 308 309 309 308 308 307 311 312 311 307 312 312 314 311 314 315 316 313 312 314 315 317 319 316 310 309 312 312 312 312 312 312 313 313 311 306
311 311 311 310 310 309 307 308 309 309 313 312 309 310 310 309 311 311 308 309 313 312 313 315 315 310 312 313 314 315 317 318 316 310 308 308 312 311 310 308 309 309 310 309 306
312 311 311 311 310 311 308 307 308 307 312 310 308 310 309 309 309 303 304 308 309 313 311 313 311 312 313 314 314 318 314 313 312 313 316 308 315 314 312 310 310 312 310 307 305
313 312 312 311 311 312 307 307 308 302 312 308 306 306 307 310 307 306 302 305 311 309 311 314 310 311 314 315 312 316 308 310 309 311 309 313 312 312 306 310 312 312 313 309 307
314 312 312 311 310 310 309 307 305 309 308 308 310 310 312 309 307 305 306 304 305 309 309 312 306 309 313 305 307 304 308 307 305 308 315 313 313 312 312 311 311 312 311 308 306
315 313 313 311 312 311 308 307 312 308 304 307 311 311 311 312 310 308 308 308 312 313 314 311 310 306 306 310 306 307 313 318 322 319 318 309 309 312 311 311 311 313 313 307 305
317 314 314 312 310 310 306 312 310 311 309 307 310 311 313 311 311 309 309 312 308 309 312 314 315 308 307 313 316 310 315 321 326 319 318 306 311 313 311 311 311 307 307 303 303
318 315 313 312 309 309 307 312 310 311 309 308 310 312 313 312 310 310 311 313 313 309 314 314 315 305 304 305 310 309 312 312 318 306 315 314 315 314 311 309 307 307 306 306 304
316 314 313 313 309 308 309 310 310 309 306 309 310 311 310 311 310 311 311 311 312 309 311 313 313 307 301 302 301 306 307 312 313 322 320 314 314 314 313 312 310 307 307 308 304
317 315 314 313 309 310 311 310 309 308 307 309 310 310 309 310 311 310 311 310 310 309 309 311 313 309 304 306 310 305 308 307 308 314 317 316 314 309 310 311 311 310 310 310 307
316 318 310 309 312 312 312 310 307 309 307 308 308 309 309 308 309 310 310 310 310 309 310 311 314 315 312 303 301 307 310 310 313 314 311 314 315 310 310 311 310 311 309 307 306
316 313 307 310 315 313 312 313 310 311 309 310 310 310 308 308 308 309 310 309 308 310 311 309 313 318 315 306 301 306 306 307 310 312 314 315 314 310 310 309 308 309 310 306 305
315 313 308 308 312 314 314 315 314 310 311 308 309 310 310 311 309 310 310 308 308 310 311 311 314 315 313 312 307 308 307 306 308 312 313 313 312 312 311 310 310 310 306 306 306
315 313 307 307 308 312 314 315 317 315 311 310 310 310 311 312 310 311 312 311 305 306 308 310 314 315 315 314 313 313 310 308 308 309 311 312 311 311 311 311 311 310 309 308 308
315 310 307 310 309 310 311 314 315 316 316 314 313 314 310 311 312 317 314 311 311 308 309 307 314 313 313 312 312 313 312 312 312 311 310 309 308 309 309 309 309 309 308 307 307
308 311 309 308 309 309 310 311 313 313 314 314 314 312 313 313 311 311 312 312 312 312 312 309 312 315 317 314 313 315 313 313 312 312 311 312 311 310 310 309 309 309 308 307 306

GFSSW_925_thetae_003.txt.gz
Theta_e
311 311 311 311 311 310 310 310 310 311 311 312 313 313 314 315 314 313 316 316 316 314 314 316 315 317 319 321 321 321 322 324 323 321 322 318 317 316 313 317 314 315 315 311 311
309 309 309 309 309 309 309 309 310 310 310 310 312 312 313 314 318 316 315 314 314 314 315 317 319 318 322 321 320 321 324 323 321 320 319 319 317 318 315 316 316 315 314 307 308
310 310 310 310 310 309 309 309 308 309 309 309 311 313 313 313 318 319 316 313 314 314 314 316 317 320 321 321 322 322 322 320 320 318 317 318 317 317 316 318 318 318 317 310 308
310 310 310 310 310 310 309 309 308 308 308 308 310 313 313 318 320 315 313 312 313 313 314 315 318 320 322 322 320 321 321 319 319 317 316 317 317 316 316 318 316 317 317 313 309
310 310 310 310 310 310 310 309 308 308 307 307 309 313 315 318 318 314 313 312 312 312 315 317 319 322 322 321 319 320 320 318 317 317 316 316 316 317 318 318 317 315 311 313 310
311 310 310 310 310 310 309 308 308 307 307 307 309 313 317 316 314 313 313 312 312 313 314 315 318 319 319 318 320 319 318 318 318 317 317 316 317 315 318 317 317 317 314 312 312
313 312 310 310 310 309 309 308 307 307 307 308 312 312 316 315 313 312 311 311 311 312 315 313 315 318 319 320 317 316 318 319 319 317 316 315 316 317 317 316 315 315 314 313 312
313 312 311 310 309 309 308 307 306 306 307 310 312 315 316 314 313 311 310 310 310 310 312 310 312 317 317 315 316 317 318 319 320 317 316 315 316 317 317 317 315 315 316 314 313
312 311 310 309 308 308 308 307 305 306 309 313 315 317 315 313 314 312 311 312 310 310 309 309 314 317 315 318 319 320 320 320 320 317 317 316 316 316 316 316 315 315 315 316 314
311 310 310 309 307 306 307 306 305 311 314 313 313 317 314 315 314 311 308 310 312 313 314 314 316 317 318 318 319 318 318 319 319 318 316 316 316 316 316 316 316 316 315 315 315
311 311 310 310 309 306 306 306 314 315 313 316 317 317 312 313 311 311 309 310 312 313 316 316 317 317 318 318 319 318 318 317 317 318 316 317 316 317 317 316 316 316 316 315 315
312 311 311 311 311 308 308 310 315 311 310 311 312 312 311 314 314 313 308 313 313 315 316 316 315 316 316 316 316 317 317 317 318 319 314 316 316 316 316 316 316 315 315 314 315
313 312 311 311 311 312 310 312 309 310 312 311 313 311 312 310 312 314 310 313 314 315 315 316 316 314 315 317 316 316 317 318 318 319 315 315 316 316 316 314 314 313 313 313 313
314 313 312 311 313 313 312 307 308 308 312 313 310 312 311 310 310 305 307 311 313 314 314 315 315 315 315 315 315 317 317 318 318 318 319 314 318 317 316 315 314 312 314 315 312
315 313 312 312 313 313 309 307 308 307 317 312 309 308 310 311 309 307 303 307 312 312 313 314 315 313 315 315 316 317 312 315 316 317 319 317 317 316 312 313 313 313 315 316 313
317 315 313 313 313 312 310 307 310 312 316 310 310 311 312 311 309 306 307 306 307 311 311 312 309 312 315 309 312 310 312 312 312 314 319 316 318 317 316 314 314 314 314 315 312
319 316 313 313 314 311 309 311 312 312 310 314 313 312 312 314 312 309 309 309 312 313 314 315 313 311 309 312 309 311 315 318 323 323 321 317 316 317 316 314 314 314 314 315 311
321 318 314 313 312 310 308 313 314 313 316 310 310 313 314 313 313 312 312 313 311 312 314 315 316 312 309 313 316 312 316 320 327 320 320 314 317 316 316 315 313 313 313 312 310
323 318 315 313 312 310 312 315 319 318 314 314 312 312 313 313 313 313 313 314 314 312 314 314 314 308 310 309 314 313 314 315 321 321 321 317 317 318 318 314 313 312 311 311 309
318 317 316 313 313 309 311 316 322 317 314 311 314 313 313 313 312 312 313 314 313 313 313 313 315 313 304 305 307 310 311 316 316 324 321 316 317 317 317 315 314 313 312 313 310
317 316 315 313 309 310 311 312 319 318 314 310 311 312 313 314 314 313 312 313 313 313 312 312 315 312 306 308 311 308 310 310 310 317 319 319 317 313 315 314 313 314 313 314 312
316 319 311 312 312 309 311 314 315 317 314 310 311 310 312 312 313 312 313 313 312 312 311 312 314 315 314 312 309 311 311 312 314 315 314 315 316 313 314 314 312 312 313 313 313
317 315 309 311 317 313 313 315 316 318 317 312 311 309 310 310 309 310 311 312 312 312 313 311 314 317 314 310 304 308 310 311 313 313 315 317 316 313 313 313 313 311 312 311 310
316 316 309 309 313 316 313 316 317 316 316 314 310 312 312 313 312 313 314 313 310 311 310 312 313 313 314 314 312 312 310 310 310 313 313 314 313 313 313 313 313 313 312 312 311
313 316 309 312 311 313 314 315 317 317 316 314 314 314 314 317 316 317 315 313 311 308 310 310 313 313 314 314 313 312 312 311 310 310 312 312 312 312 312 312 312 312 311 310 310
308 314 308 313 315 311 311 314 316 317 317 317 316 317 315 316 317 319 317 315 314 312 310 310 313 313 314 313 312 312 311 312 312 312 312 312 310 310 310 311 311 311 310 310 309
302 301 301 306 309 311 314 314 314 315 315 316 317 317 316 315 313 314 314 314 315 314 312 311 313 314 315 314 314 315 314 313 312 313 313 314 313 313 313 312 312 312 311 310 310

GFSSW_925_thetae_006.txt.gz
Theta_e
309 309 309 309 309 309 309 309 309 309 309 310 311 313 313 313 315 315 316 317 317 315 314 318 316 317 319 322 320 321 321 323 324 322 322 316 317 315 313 314 315 314 315 311 311
310 310 310 310 310 310 310 309 308 308 308 308 309 312 313 313 314 319 317 315 315 314 316 317 319 319 320 322 321 321 326 325 321 319 319 318 316 316 314 314 314 314 311 310 310
310 310 310 311 311 311 310 310 309 308 308 308 308 311 312 313 321 319 318 316 314 314 315 316 317 320 321 322 322 321 322 321 319 319 317 317 316 316 316 315 314 313 312 307 308
311 310 310 310 310 310 310 310 309 308 308 307 307 310 312 317 320 317 315 313 313 314 315 316 318 320 320 323 321 320 320 320 320 317 316 316 317 316 314 314 316 315 314 307 307
312 311 311 310 310 310 310 309 309 308 307 307 307 310 314 319 318 315 313 312 313 313 315 317 318 320 322 321 320 319 319 319 318 317 315 315 315 315 314 314 313 313 312 309 308
314 313 312 311 310 310 310 309 308 307 307 307 307 311 316 316 314 314 313 312 314 314 314 315 316 317 318 319 318 318 317 317 317 316 316 315 315 315 314 313 314 314 310 309 309
314 313 313 312 311 310 310 310 309 307 306 306 308 312 318 316 314 313 312 312 312 313 315 315 315 317 319 320 315 316 315 316 316 316 316 316 315 315 313 314 313 313 312 310 309
314 313 311 310 309 309 309 310 309 307 306 307 311 316 317 315 313 312 311 311 311 311 312 313 312 316 317 316 316 316 317 318 318 317 314 314 315 316 314 313 313 311 310 311 310
314 312 311 310 309 308 307 309 308 306 306 310 313 318 317 313 314 313 312 313 311 311 311 311 314 316 316 316 316 316 318 318 319 317 315 314 316 315 315 315 313 311 310 311 311
314 313 310 311 310 310 306 305 306 308 314 314 316 316 314 316 314 312 311 312 313 313 313 314 315 316 315 315 317 317 317 317 316 316 315 314 314 314 313 313 312 312 312 312 311
315 314 313 312 312 311 307 306 314 320 314 316 317 316 315 313 312 311 310 311 313 314 315 315 314 315 315 316 316 316 316 316 316 316 315 315 315 314 313 313 313 313 313 313 310
316 314 313 312 312 310 312 313 313 311 311 311 312 314 313 314 315 314 310 311 313 314 314 315 316 315 315 314 315 315 314 315 315 315 314 314 315 314 313 314 314 313 313 313 310
316 315 314 313 312 315 313 312 309 311 313 310 311 311 311 312 313 314 309 312 313 314 314 314 315 315 315 315 315 315 314 314 314 314 313 313 314 313 313 313 313 312 312 310 309
317 316 314 314 314 314 313 309 308 310 312 312 312 312 311 311 309 308 310 312 313 314 313 314 314 315 314 314 313 314 314 315 315 315 316 314 317 313 313 312 311 311 311 309 307
319 317 315 313 312 314 312 308 309 310 316 314 309 309 310 310 308 307 304 307 311 312 313 313 313 313 314 314 313 314 312 314 315 316 315 315 314 313 312 312 311 310 311 310 309
320 319 316 314 314 314 312 308 311 312 313 312 311 311 312 311 309 306 307 306 307 310 310 311 309 311 313 310 311 310 312 312 312 312 314 312 313 312 312 312 312 310 309 308 308
322 320 317 315 316 313 309 312 313 311 313 315 313 312 312 313 312 308 308 307 309 310 311 312 310 310 310 312 309 310 314 315 316 316 316 312 312 314 314 310 310 309 308 307 307
323 323 319 316 314 313 309 315 315 320 314 313 312 313 313 312 313 311 312 310 308 310 312 313 313 311 308 311 314 310 313 317 316 314 313 311 313 313 312 311 310 309 308 308 306
320 318 317 317 314 311 312 315 323 323 321 319 317 314 314 312 313 313 311 312 312 309 311 312 312 307 308 310 311 312 312 313 314 307 313 313 312 312 312 311 309 308 308 307 306
317 317 316 317 314 310 311 316 319 323 322 319 321 315 314 313 312 312 312 312 312 311 310 312 312 310 305 305 307 309 308 313 314 311 311 311 311 313 313 313 310 310 308 307 305
316 319 316 316 311 311 311 312 317 318 319 321 323 320 314 312 312 313 312 312 312 313 311 311 312 310 305 306 309 306 308 309 310 315 312 312 313 311 310 311 310 309 310 309 307
316 318 311 311 313 311 313 313 314 316 318 316 313 314 314 314 312 314 314 314 310 311 312 311 314 314 311 309 307 308 309 310 311 311 309 312 313 310 311 308 307 308 309 308 307
315 316 309 312 319 315 312 314 314 316 316 318 320 318 318 318 319 316 314 311 311 311 310 311 312 316 313 312 306 306 308 309 310 310 312 313 312 310 311 309 308 308 308 307 306
311 315 310 309 312 316 315 315 315 314 315 316 317 317 317 316 315 316 316 314 313 312 312 312 313 315 316 314 312 311 308 307 309 311 311 311 310 310 310 310 310 310 309 306 305
307 311 310 312 311 314 315 314 316 316 315 316 317 317 318 318 317 317 314 313 312 312 312 314 313 312 313 313 312 312 311 310 310 310 310 310 310 310 310 309 310 310 308 307 306
304 308 305 309 310 313 312 313 314 315 315 316 317 316 316 317 317 318 316 316 316 312 313 313 315 312 313 311 311 311 310 310 311 311 311 311 311 310 309 309 309 309 309 308 308
300 300 301 302 305 308 310 310 311 311 312 312 314 315 316 316 315 314 315 315 315 316 314 310 312 313 316 313 312 314 313 313 313 312 312 312 312 311 310 310 310 310 310 310 309

GFSSW_925_thetae_009.txt.gz
Theta_e
310 310 310 310 310 310 310 309 308 308 307 308 308 310 312 313 313 315 315 316 317 317 315 317 317 316 317 318 318 318 314 315 318 320 319 315 315 314 312 313 314 313 313 311 311
310 310 310 310 310 310 310 310 309 308 308 307 307 308 312 313 313 316 316 316 316 314 315 316 316 315 315 318 317 317 317 319 318 317 317 315 314 312 314 313 312 313 308 310 309
310 310 310 310 310 310 310 309 309 308 308 307 307 307 311 313 320 318 318 316 314 314 316 316 316 316 317 317 317 316 315 317 317 317 314 315 314 313 312 312 310 311 309 306 305
312 311 311 310 310 310 310 310 309 308 307 307 307 307 311 315 308 317 315 314 313 314 314 315 315 317 317 318 318 319 316 317 317 316 315 315 313 314 311 313 312 309 309 306 304
313 313 312 311 311 310 310 310 310 309 308 307 306 307 312 318 315 316 313 313 313 314 315 314 315 316 318 318 318 318 317 316 315 314 314 314 313 312 311 310 309 309 309 306 305
311 312 311 310 311 311 311 311 310 310 309 307 306 308 313 314 313 314 313 312 313 313 314 314 314 314 315 316 316 315 316 314 313 314 313 314 313 313 312 311 310 310 309 305 306
314 314 314 311 306 307 310 311 311 310 309 307 306 311 318 311 313 313 313 311 313 313 313 314 314 314 315 317 315 314 315 312 313 313 314 313 313 313 313 311 311 310 309 307 306
315 314 314 313 308 306 305 305 308 309 308 307 309 314 310 314 313 312 311 312 312 311 312 313 313 313 315 314 313 314 314 314 313 313 314 313 315 312 311 309 310 310 307 307 306
315 315 314 313 312 310 307 306 305 306 307 308 312 318 312 313 312 313 312 311 310 311 311 311 313 313 314 312 311 312 312 313 314 313 312 312 314 312 310 309 310 307 307 308 309
316 315 315 314 313 311 308 307 306 308 314 314 317 315 312 313 314 312 311 312 311 310 311 312 311 310 312 310 311 311 313 313 313 313 313 312 313 312 310 310 308 307 306 306 308
316 316 315 315 314 312 311 309 308 311 317 309 311 310 313 312 313 310 310 311 312 312 311 311 310 311 311 312 311 311 311 311 313 313 314 314 313 313 312 310 309 309 310 311 310
317 316 316 315 315 314 313 311 311 310 307 308 307 311 313 313 313 312 310 310 311 311 311 313 312 311 311 311 312 312 312 311 312 310 311 311 313 312 310 312 312 311 311 311 311
318 317 316 317 315 315 313 310 309 311 311 309 307 307 309 312 312 312 308 309 310 311 311 312 313 313 313 313 313 312 312 312 312 311 310 310 311 312 311 311 311 312 311 311 311
319 318 317 318 315 315 312 311 308 309 306 309 309 311 309 310 308 306 308 310 310 312 311 311 312 311 311 312 312 313 311 311 312 312 313 311 314 311 311 311 310 311 310 309 304
321 320 318 316 316 314 314 312 308 309 310 311 309 309 308 307 307 306 304 307 309 310 310 311 312 310 312 312 310 312 312 312 313 313 312 314 313 314 310 310 310 310 309 309 305
324 321 319 316 314 317 314 308 310 305 308 310 308 309 309 309 308 306 306 305 306 308 307 308 308 311 311 309 310 310 311 311 310 308 313 311 311 311 309 310 310 310 308 309 308
324 322 320 318 315 313 309 312 312 308 308 312 310 310 310 311 310 306 306 305 306 308 307 308 308 308 309 311 308 310 310 311 311 312 314 309 310 312 311 310 309 310 309 308 304
321 322 320 320 316 314 311 315 320 320 313 312 310 310 310 310 311 308 308 307 304 307 309 309 310 308 307 310 309 308 310 312 310 312 313 308 311 311 309 309 307 307 308 307 304
318 319 317 319 315 314 314 317 325 320 321 322 323 323 312 310 309 309 307 307 307 307 309 308 310 308 306 308 309 309 311 310 312 297 308 312 310 308 309 308 307 307 306 305 304
316 317 316 318 316 311 313 323 320 318 320 321 325 324 324 321 311 311 310 308 309 307 309 310 310 309 306 306 307 308 307 311 310 309 308 312 309 311 310 311 310 307 305 304 304
313 318 316 316 312 312 316 316 317 316 317 320 322 324 323 323 322 319 315 312 309 309 308 308 310 311 305 306 308 306 308 308 309 310 313 313 312 308 310 309 309 306 305 304 304
314 317 313 312 315 313 318 314 314 316 314 317 315 318 319 319 321 322 322 317 312 310 313 310 311 312 310 305 305 307 309 309 311 311 308 312 313 312 308 309 306 309 309 307 306
310 312 310 312 318 317 312 314 314 316 315 316 318 318 318 319 320 318 318 315 316 314 314 312 313 317 315 312 305 307 306 308 308 309 312 314 314 312 311 311 309 305 303 304 304
305 311 310 309 312 316 317 316 316 313 314 314 316 316 318 319 318 320 319 317 315 315 313 314 312 316 318 315 312 312 310 308 310 312 313 313 313 311 310 310 309 309 309 308 306
301 304 307 309 311 313 313 314 315 316 314 314 316 316 317 318 318 318 317 316 315 313 312 314 314 314 314 314 314 314 314 313 313 312 313 313 311 309 309 309 309 309 308 308 304
299 302 302 303 305 309 312 312 312 312 312 312 313 312 314 315 316 317 315 316 316 312 313 313 317 316 316 314 313 315 314 314 314 314 313 312 311 310 311 311 310 310 310 309 308
298 299 300 299 299 302 305 306 307 307 307 308 306 305 306 308 307 305 305 307 310 313 315 315 313 317 319 316 315 316 315 315 314 312 312 313 311 310 310 310 311 311 310 309 308

GFSSW_925_thetae_015.txt.gz
Theta_e
309 310 310 310 310 310 310 309 309 309 308 307 307 307 307 310 311 312 313 314 314 315 314 313 316 316 315 315 314 309 310 312 313 315 316 313 314 312 310 312 311 309 310 309 310
310 310 310 310 310 310 310 309 309 309 308 307 307 306 306 310 311 313 311 314 315 315 316 315 314 313 313 316 315 314 308 310 310 314 315 314 312 312 313 311 310 311 309 308 309
311 311 311 311 311 310 310 310 310 310 309 308 307 306 306 310 313 310 316 313 316 315 315 315 314 313 315 315 315 314 313 312 314 313 314 314 312 310 311 311 308 310 309 305 305
312 310 310 310 310 310 310 311 311 310 310 310 309 307 306 311 308 314 315 316 315 314 315 314 312 315 315 316 314 316 313 313 314 315 314 313 312 311 309 313 310 307 308 304 303
314 313 313 312 310 308 307 308 309 310 311 311 310 308 308 312 310 311 314 316 314 313 314 311 312 313 315 313 315 315 315 314 312 313 312 311 311 311 310 309 306 306 306 305 304
315 315 315 314 314 312 309 307 306 306 308 310 310 308 311 307 310 312 314 313 313 313 313 311 311 311 313 314 314 313 313 312 311 312 312 314 313 312 313 310 308 307 306 304 304
316 315 315 315 316 316 314 311 309 307 305 305 308 307 314 307 311 312 313 312 312 313 311 311 312 313 312 312 312 312 312 310 309 311 312 310 312 310 312 310 309 307 306 305 304
316 316 316 316 316 317 317 313 311 310 308 306 305 312 306 310 311 312 312 311 311 312 311 312 312 312 313 310 309 311 311 311 310 309 311 310 311 311 309 309 309 308 306 304 305
316 316 316 317 317 318 315 312 311 310 308 306 310 313 308 311 311 312 312 311 310 310 310 312 311 310 311 309 308 307 309 309 309 309 311 310 312 311 310 308 308 307 306 306 305
317 317 317 318 318 318 316 311 311 311 313 314 316 309 306 310 312 311 310 310 309 308 309 310 307 308 307 307 310 309 309 308 309 310 310 311 310 310 311 308 307 308 307 308 308
319 318 318 318 319 317 315 311 307 306 313 307 309 306 309 311 312 309 310 310 309 308 308 309 308 309 310 309 310 308 307 308 308 308 311 310 311 311 311 310 310 306 309 309 309
320 320 320 319 319 318 312 310 309 308 306 306 306 308 310 311 311 309 309 310 310 310 307 310 308 309 308 308 309 309 310 310 310 310 307 308 309 309 308 309 311 311 310 309 308
323 321 320 320 320 318 311 310 308 309 307 306 305 305 306 310 310 310 308 308 309 309 308 310 310 309 308 308 310 308 309 310 310 309 306 306 310 309 307 308 309 309 309 309 309
325 324 322 321 318 317 313 313 308 309 307 306 307 306 308 309 308 305 306 308 309 309 308 308 308 309 309 309 309 310 308 309 309 309 311 309 312 309 308 308 307 308 309 308 308
324 324 324 322 319 317 316 312 308 305 329 312 308 308 308 305 305 305 305 307 308 308 308 307 309 309 309 310 308 310 309 308 308 307 309 310 308 311 308 308 307 308 307 308 306
322 323 322 320 319 321 317 309 309 314 325 312 307 308 309 308 307 304 305 304 305 307 306 307 305 307 308 307 306 308 310 308 305 307 311 310 310 312 308 309 309 308 307 307 307
318 319 319 319 318 318 315 313 325 327 316 315 309 308 307 308 308 305 306 307 307 308 306 305 306 306 307 309 307 308 308 310 309 310 312 307 309 313 310 307 307 309 307 304 303
313 315 318 319 319 318 316 322 325 321 319 314 310 308 310 307 310 306 305 305 304 305 304 307 313 306 305 307 307 307 308 311 309 315 316 306 310 314 308 307 306 304 304 302 302
307 311 316 317 318 315 318 324 322 323 320 321 321 320 314 310 310 308 306 306 306 304 309 307 310 306 305 306 307 306 308 308 311 304 309 311 310 310 307 306 307 306 303 303 300
304 311 314 315 318 314 319 323 322 320 319 320 325 322 322 312 319 310 310 308 307 304 305 310 311 310 306 305 305 306 306 309 307 313 312 310 311 312 310 311 308 306 305 304 302
304 309 311 315 314 314 318 318 318 317 318 320 322 323 322 323 321 322 322 317 308 310 304 307 312 316 311 307 311 306 307 307 307 311 315 316 315 313 312 308 306 305 304 306 304
307 310 310 314 315 315 317 315 314 315 315 318 318 320 321 320 320 320 322 319 313 312 314 310 313 318 316 307 305 307 308 308 312 313 311 313 315 313 312 309 303 307 309 308 303
304 307 311 311 315 315 314 315 315 315 315 316 317 316 316 318 319 317 318 316 315 314 316 315 317 319 319 313 311 314 315 313 313 312 313 313 313 311 311 311 311 309 306 304 304
300 302 308 309 310 313 313 314 314 313 315 315 316 314 315 316 315 317 315 313 310 311 311 314 317 319 320 318 313 314 312 312 315 316 315 314 313 312 312 312 311 311 308 306 304
296 299 302 308 307 308 310 309 311 311 312 313 314 315 315 315 314 315 311 308 308 309 308 311 315 314 313 312 312 313 314 314 316 316 315 315 317 315 313 311 307 304 303 300 300
296 297 298 297 300 303 306 308 308 308 309 310 311 311 311 312 312 307 302 304 304 305 303 304 306 307 307 305 306 309 308 310 313 311 311 309 308 301 297 295 293 297 294 294 294
294 296 297 296 297 298 300 303 302 299 304 302 299 300 303 302 297 297 296 297 298 299 299 301 303 301 303 301 299 300 300 302 305 306 305 306 299 295 294 293 292 294 292 293 294

GFSSW_925_thetae_021.txt.gz
Theta_e
309 310 310 310 310 310 310 310 309 309 309 309 309 308 307 306 307 310 310 311 313 314 315 313 315 315 314 313 310 307 312 312 313 311 312 311 312 309 309 310 309 309 310 310 309
310 310 310 310 310 310 310 310 310 310 310 310 310 309 308 307 310 312 311 310 313 314 314 313 312 312 312 313 313 313 311 311 308 307 312 312 311 312 312 312 309 310 308 308 308
312 311 311 310 310 310 309 309 308 309 309 310 310 310 309 308 308 308 315 313 312 313 314 313 313 312 313 313 314 312 314 310 310 307 310 312 311 310 312 313 310 311 311 306 306
314 314 314 313 313 313 312 311 311 309 307 308 309 310 310 310 309 309 315 312 313 314 314 313 311 313 314 314 313 315 312 311 312 311 313 313 310 310 309 316 312 309 309 307 306
315 315 315 315 315 315 315 315 314 313 311 308 306 306 309 308 307 311 311 313 315 314 314 310 312 311 314 311 312 314 313 313 311 311 311 311 312 312 310 310 308 306 305 306 305
316 315 315 315 316 316 317 318 317 315 314 312 309 306 309 308 310 310 311 314 314 314 312 311 310 310 311 311 312 311 311 310 309 310 310 313 313 310 310 308 308 306 307 305 304
315 315 315 316 316 317 318 318 316 315 314 312 311 307 309 306 310 311 312 314 314 313 309 311 311 311 310 311 309 310 311 308 307 308 309 308 311 309 311 308 309 308 306 304 305
316 317 317 317 318 319 320 318 317 315 312 311 310 308 302 306 309 310 311 311 312 312 311 311 311 310 311 309 308 309 308 310 309 307 309 310 311 310 307 306 307 306 306 306 306
319 319 319 319 319 320 320 318 312 311 310 308 310 308 305 307 310 309 311 309 309 310 310 310 310 308 308 308 308 306 309 307 308 307 309 309 310 308 307 306 307 308 309 307 309
319 319 319 319 320 320 320 315 310 314 313 314 313 308 307 307 310 309 309 309 308 307 308 308 304 307 305 307 310 309 307 306 307 308 306 308 309 308 308 307 308 308 308 309 309
321 322 322 321 320 321 319 311 310 308 309 309 310 305 304 308 310 308 308 308 306 306 308 307 307 309 309 307 306 307 305 305 305 305 307 308 308 307 307 306 308 309 309 308 308
324 324 324 324 323 321 317 308 309 308 309 308 306 306 308 310 310 307 308 309 308 309 305 307 308 307 306 306 306 307 308 308 308 307 305 306 308 309 308 309 309 309 309 307 306
325 325 324 324 323 319 313 313 309 308 306 309 306 306 306 308 308 308 307 307 308 306 306 309 309 306 307 307 308 306 307 308 307 306 305 304 308 306 307 306 307 307 307 306 306
324 323 324 324 321 320 313 315 308 307 314 314 307 306 306 307 308 303 305 307 307 308 306 306 306 307 306 307 306 309 306 306 307 307 309 306 310 307 308 307 306 305 304 304 303
322 322 322 323 322 318 316 312 309 305 329 313 306 306 305 305 304 303 304 306 308 308 307 309 307 307 308 308 305 308 307 307 306 306 307 307 307 308 306 309 308 308 306 305 304
319 319 321 321 321 319 317 315 312 321 328 318 306 307 308 306 305 304 305 304 303 306 305 305 303 305 306 306 305 306 308 305 303 306 310 308 308 309 308 308 309 308 307 304 302
313 315 317 319 319 319 318 318 323 326 321 318 307 306 306 306 307 305 306 307 306 307 307 305 305 305 305 307 305 307 306 309 310 310 312 305 307 309 307 307 309 308 305 303 300
306 307 310 315 317 318 318 322 325 322 323 318 316 314 315 308 311 307 306 307 304 304 305 307 317 305 304 307 309 306 308 314 321 312 317 309 314 313 307 307 304 304 303 302 301
304 304 307 307 314 316 317 322 322 319 317 320 318 319 318 311 311 308 306 309 309 305 313 317 315 306 303 304 306 306 309 308 312 312 312 314 312 313 309 307 305 303 301 300 299
300 303 309 308 311 315 317 317 319 317 318 319 322 320 321 318 312 312 313 310 307 305 306 315 320 313 311 304 304 307 307 311 309 317 320 317 314 315 311 308 305 302 301 300 298
300 303 305 311 312 313 314 314 314 314 316 318 320 320 320 322 316 318 318 317 310 311 305 312 317 317 312 308 309 305 306 306 307 313 318 320 317 312 309 303 303 301 300 297 295
303 296 307 311 312 313 313 311 311 312 312 313 316 317 318 317 318 317 317 315 314 314 315 311 315 318 316 312 305 307 311 310 313 316 311 316 317 311 303 301 299 296 295 294 293
300 300 307 311 309 311 310 313 312 312 312 313 314 314 313 314 315 313 313 311 311 314 315 313 314 318 316 312 310 314 314 312 312 313 317 318 317 309 306 299 296 294 293 293 292
296 296 298 308 305 307 307 307 308 306 310 311 312 311 311 313 312 313 314 312 310 311 312 312 312 316 318 314 314 314 312 309 308 309 311 312 309 306 304 297 294 295 293 292 291
292 295 297 301 304 302 307 306 307 306 306 306 307 309 308 309 308 310 310 307 307 304 307 309 313 311 313 309 306 306 305 304 304 305 306 305 304 302 296 293 292 291 294 293 290
293 293 294 297 295 299 301 303 304 303 304 303 303 303 302 304 305 307 303 304 304 298 301 302 305 303 303 301 301 301 298 298 299 300 301 301 301 293 292 291 290 289 292 293 288
291 294 294 292 295 295 295 299 297 297 296 295 295 296 297 300 298 297 297 296 297 298 298 299 301 299 302 299 295 297 296 297 296 295 296 297 294 291 291 290 289 289 290 291 288

GFSSW_925_thetae_024.txt.gz
Theta_e
310 310 310 310 310 310 310 310 309 309 309 309 309 310 309 309 308 309 311 311 311 314 314 313 315 315 316 318 316 315 320 320 319 318 317 317 317 314 314 316 315 316 317 317 312
311 311 310 310 310 310 309 309 309 309 309 309 310 310 310 310 310 313 311 310 312 313 314 315 317 316 318 319 319 320 320 319 317 317 316 317 316 317 316 318 317 316 316 313 312
313 312 312 311 311 310 311 310 309 308 308 308 308 309 310 309 313 311 314 314 312 314 314 314 315 317 318 318 319 320 319 319 316 315 314 316 316 316 317 318 319 318 318 317 313
314 314 314 314 313 313 313 313 313 312 311 310 309 307 308 310 314 309 315 312 312 314 313 314 316 317 318 319 318 319 319 318 317 315 316 316 316 316 316 318 318 318 317 317 316
315 315 315 315 315 315 315 315 315 314 314 314 312 309 307 311 312 311 311 312 313 313 314 316 316 317 318 318 317 318 319 318 317 316 316 316 317 318 317 317 317 316 315 314 315
315 315 315 315 316 316 316 317 317 315 315 314 313 310 309 308 310 310 311 313 314 313 314 314 316 316 316 316 317 316 316 316 315 315 315 315 316 314 315 316 315 315 314 314 314
316 316 316 317 317 318 319 319 318 316 315 314 312 310 310 312 308 310 312 315 314 313 313 312 312 315 315 316 314 314 315 315 315 314 314 314 315 315 315 315 314 314 315 314 313
317 318 318 319 319 320 321 320 318 315 312 311 310 309 311 306 307 308 312 312 313 313 311 311 311 313 314 313 312 313 313 315 315 312 312 314 315 315 315 312 313 314 315 314 314
319 319 319 319 320 320 321 319 314 311 310 308 311 309 312 307 309 309 310 310 310 310 310 309 312 313 312 314 315 314 315 315 315 312 312 315 314 315 313 312 313 313 313 314 314
319 320 321 322 323 323 321 317 310 314 313 312 310 310 309 310 309 309 309 309 310 311 311 312 313 314 313 314 316 316 315 313 313 314 311 312 313 313 313 312 312 313 313 314 313
321 322 323 323 323 323 321 313 319 316 313 317 317 311 309 308 309 308 308 308 310 311 313 312 314 314 315 314 314 313 313 313 313 313 311 312 313 312 312 312 312 313 313 314 313
323 323 324 323 323 321 318 316 312 311 318 313 311 309 308 309 311 308 308 311 311 313 310 311 313 314 313 311 311 312 313 314 314 313 310 312 312 312 312 313 313 313 313 313 313
323 324 325 323 323 320 315 315 310 308 315 315 309 309 309 309 312 311 308 310 311 311 312 314 315 311 311 312 312 313 313 313 314 312 311 310 313 313 314 313 312 312 312 311 311
323 323 323 323 321 320 314 315 308 307 323 321 310 308 307 308 309 304 305 309 310 312 311 312 311 310 310 311 312 314 314 312 311 312 313 310 315 315 315 314 313 313 311 311 310
321 322 322 322 323 320 316 313 309 306 332 314 308 307 307 307 307 306 304 308 311 311 310 314 311 310 312 312 311 313 309 309 310 312 312 312 313 318 311 314 314 313 310 308 307
320 320 320 320 321 319 318 317 312 325 332 319 308 310 309 307 306 306 307 306 306 308 309 310 307 308 310 308 308 308 310 310 309 311 315 316 314 316 315 314 313 312 307 306 305
315 315 317 319 320 319 320 318 325 328 322 322 311 308 310 309 308 307 311 314 317 318 319 316 314 308 306 310 308 309 310 317 322 320 321 310 316 314 314 311 310 307 306 305 304
307 307 310 315 318 318 319 323 325 322 322 320 317 313 322 311 315 312 316 319 311 311 315 319 321 309 307 311 314 310 315 325 328 327 325 319 323 320 314 310 307 306 305 304 303
304 304 305 307 314 317 319 321 320 320 320 321 319 321 321 316 317 314 313 317 313 309 316 320 320 310 305 306 311 315 313 313 318 320 321 320 319 316 311 311 308 307 306 303 301
300 303 308 308 311 315 316 315 315 318 318 319 321 320 320 319 317 314 318 312 312 308 308 317 322 318 314 306 307 310 309 314 317 322 324 320 317 317 314 312 309 307 304 301 299
298 305 304 309 312 314 314 313 312 313 315 317 318 319 319 319 319 319 318 318 317 313 309 315 317 316 316 314 315 308 312 314 315 319 321 320 316 313 313 309 308 304 300 298 297
304 301 308 312 313 313 313 312 311 312 312 313 315 317 317 316 316 316 315 314 315 314 315 315 317 319 318 315 312 312 316 316 318 317 314 314 315 310 308 305 301 298 296 296 294
304 304 307 311 310 311 311 312 311 311 311 312 311 313 313 313 314 312 312 312 312 314 315 314 316 318 319 315 312 313 314 313 314 314 317 319 320 309 303 300 298 296 295 294 294
300 302 303 309 309 308 308 308 310 307 310 310 310 311 312 311 310 312 311 311 309 310 309 312 314 315 317 316 314 315 315 313 313 314 314 313 311 309 308 305 297 294 294 293 291
297 299 300 307 307 308 306 306 307 307 306 306 307 309 307 307 307 308 307 307 307 304 307 309 311 311 312 312 312 310 309 307 307 307 308 307 307 306 304 296 293 291 292 294 290
297 298 297 298 299 302 303 305 305 305 304 303 304 304 303 304 304 306 304 304 305 302 302 303 306 306 304 304 304 305 304 303 302 301 300 301 301 301 294 292 292 291 290 292 290
292 294 296 295 297 299 300 302 300 300 297 297 297 298 299 300 300 298 297 297 298 299 299 299 302 303 304 302 301 300 300 300 300 299 299 298 297 294 292 291 291 290 290 291 290

GFSSW_925_thetae_027.txt.gz
Theta_e
310 310 310 310 310 310 310 310 309 309 309 309 310 310 310 310 310 316 316 314 313 313 315 316 316 317 318 320 319 320 321 321 321 319 318 318 318 319 318 318 319 318 318 319 317
312 311 311 310 310 309 309 309 309 309 308 308 308 309 310 310 313 316 315 311 310 313 316 317 318 317 320 321 321 320 322 320 320 318 318 318 318 318 318 318 319 319 319 318 317
314 314 313 312 312 311 311 311 310 310 310 310 310 308 307 310 318 314 314 313 311 313 316 317 317 318 319 320 321 321 321 320 319 319 318 317 318 318 318 318 318 318 319 319 318
315 315 315 314 314 314 314 314 314 314 313 314 313 311 307 314 316 311 315 313 311 315 315 316 317 318 319 320 320 321 320 320 320 319 317 318 318 318 317 318 318 318 318 318 318
315 315 315 315 315 316 316 317 317 316 315 315 314 313 310 314 314 312 311 312 312 314 315 317 317 318 318 318 319 320 319 318 319 319 319 318 318 318 318 318 318 318 318 317 317
315 315 315 316 317 317 318 319 319 317 316 314 314 312 315 316 311 311 312 313 315 314 315 316 317 317 317 317 317 317 318 317 317 317 317 317 317 316 316 317 317 316 316 316 317
316 316 317 318 318 319 320 320 319 318 317 314 312 311 313 316 312 316 313 317 315 315 316 316 316 316 316 317 317 316 316 316 316 316 316 315 316 316 317 317 316 316 316 316 316
318 318 319 319 320 320 321 320 319 316 312 311 310 316 315 309 310 309 313 313 314 314 314 313 314 316 316 316 315 315 316 317 317 315 315 315 316 316 316 315 315 315 315 316 316
319 319 320 321 323 323 323 320 314 311 312 309 315 316 315 308 311 310 311 312 313 312 311 311 314 315 316 316 316 317 318 318 318 317 315 315 315 316 316 315 315 315 315 315 315
319 320 322 323 323 323 322 319 312 313 314 312 313 312 311 312 311 309 309 311 312 313 313 314 315 315 316 316 318 319 319 318 318 316 315 315 315 315 315 315 315 315 315 315 315
321 321 323 323 323 323 321 317 322 321 319 322 324 318 321 310 309 310 309 310 312 314 315 315 315 316 317 318 317 316 316 317 316 316 316 317 316 316 315 315 315 315 315 316 315
323 323 323 323 323 322 319 322 317 314 323 322 319 316 314 310 314 311 309 312 313 315 315 315 316 316 316 316 314 315 316 316 316 316 317 316 315 314 314 315 315 315 315 315 313
322 322 323 324 322 321 319 316 312 310 320 322 314 314 313 312 318 318 311 313 314 316 315 317 318 316 314 315 315 316 316 316 316 316 315 314 315 316 316 317 316 315 314 311 311
322 323 323 323 322 322 319 316 310 310 324 323 314 310 309 311 312 307 309 312 313 317 316 316 313 312 313 314 314 315 315 314 314 314 315 313 315 316 317 318 314 312 310 310 308
322 322 322 322 324 323 315 315 311 310 333 316 310 308 309 311 310 309 307 310 314 314 313 315 314 313 313 313 313 314 312 312 312 312 314 315 316 318 317 317 314 311 309 308 306
319 320 320 321 321 319 319 318 314 325 332 323 311 312 310 309 308 309 310 308 310 312 312 315 310 311 313 312 312 311 311 313 314 314 319 319 319 319 318 315 310 309 308 307 306
318 317 318 319 321 320 320 322 327 328 323 325 316 311 315 313 310 310 313 314 318 320 321 318 315 315 310 313 312 310 313 321 326 322 324 316 322 318 317 313 311 310 308 306 305
310 310 311 317 318 319 321 324 328 322 321 322 319 316 322 318 318 315 318 321 318 317 319 318 317 314 309 312 316 314 318 327 331 328 326 321 323 321 317 310 309 308 307 305 304
306 306 308 311 315 318 321 324 322 319 319 320 320 321 320 319 320 320 319 318 317 315 317 319 318 313 308 309 314 319 322 320 323 323 324 319 317 318 319 313 310 309 306 304 302
304 307 309 308 312 317 318 318 315 315 317 319 320 319 318 318 318 316 316 316 317 312 312 318 322 319 317 310 312 312 311 316 316 320 321 318 320 319 314 313 311 307 304 301 300
302 307 306 308 314 315 316 313 310 311 314 318 317 317 315 315 316 316 316 316 318 313 314 317 318 317 315 315 314 311 312 312 315 320 321 322 320 316 314 312 310 304 301 300 298
305 306 308 312 312 313 314 312 310 312 313 313 315 314 315 314 314 314 313 313 315 315 316 315 316 318 314 312 312 315 316 316 318 319 319 320 320 310 309 305 303 301 300 298 297
304 306 308 311 312 314 311 311 311 311 312 312 312 312 311 312 312 310 310 311 313 313 315 314 315 316 315 309 313 316 315 315 316 315 317 319 317 309 304 303 301 300 298 296 295
304 305 307 309 311 309 309 309 310 310 310 310 309 309 310 310 309 309 309 311 310 310 308 311 312 314 313 308 309 312 312 312 314 316 315 316 314 310 309 309 304 298 297 296 293
301 302 305 309 309 309 307 306 306 308 307 307 307 307 307 307 307 307 307 307 307 306 306 308 309 308 308 308 308 309 309 309 310 310 311 311 310 307 306 304 299 294 293 294 294
299 300 300 304 306 308 307 307 306 306 305 304 306 305 307 307 306 306 306 305 304 303 303 304 304 304 304 303 303 303 303 304 305 305 305 304 303 303 299 295 296 295 292 291 291
295 296 299 300 302 305 306 306 303 304 302 301 303 302 302 302 302 301 300 300 301 301 301 301 301 302 302 300 300 301 301 301 301 302 301 301 301 296 296 293 292 292 291 291 291

GFSSW_925_thetae_030.txt.gz
Theta_e
310 310 310 310 310 310 309 309 309 309 309 309 309 309 309 310 310 317 319 315 315 314 316 317 316 317 318 321 319 320 320 320 320 320 319 317 317 318 318 317 316 316 317 318 318
311 311 311 310 310 310 310 309 309 309 310 310 310 309 307 308 311 317 317 315 311 312 316 317 318 318 318 321 321 320 322 321 319 317 317 316 315 315 316 315 315 315 316 318 318
314 313 313 313 313 313 313 313 313 313 312 313 313 312 309 307 320 316 314 312 310 312 317 317 318 318 319 320 321 321 321 319 318 318 318 317 315 315 315 315 315 314 314 314 317
315 315 315 314 314 315 315 316 316 316 315 315 314 314 311 312 316 313 315 313 311 313 316 316 317 318 319 319 319 319 319 319 319 318 318 317 316 316 315 315 315 314 314 314 314
315 315 315 315 316 316 317 318 318 317 315 314 314 314 312 317 315 315 311 312 312 315 315 317 317 317 318 318 317 317 318 318 317 316 316 317 317 316 316 314 314 314 314 314 313
315 315 316 316 317 318 319 320 320 319 318 317 314 313 316 317 313 319 318 312 315 315 315 316 316 316 317 316 316 316 316 316 315 315 315 315 315 316 314 313 313 313 313 312 312
316 316 317 318 319 320 320 321 320 320 318 316 313 312 316 315 314 317 314 317 315 315 316 316 316 317 317 317 314 315 315 314 314 314 314 315 314 314 313 313 313 313 312 311 312
317 318 319 319 321 322 323 322 321 318 314 311 310 316 316 311 311 311 314 313 314 315 314 314 315 315 316 316 316 315 314 315 316 316 314 314 314 314 313 312 312 311 310 311 311
318 319 319 322 323 323 323 322 319 312 312 310 316 319 315 309 312 310 312 312 313 313 312 312 314 315 315 315 315 314 314 315 316 316 315 314 315 314 313 312 312 312 311 311 311
319 319 320 323 323 323 323 321 315 313 317 316 315 314 311 313 311 310 310 312 313 313 313 314 314 314 314 313 315 316 316 316 316 316 314 314 313 313 313 313 313 313 311 311 309
320 320 322 323 322 323 322 320 320 320 315 322 323 322 323 310 309 311 310 311 313 314 315 314 314 314 315 315 315 315 314 315 315 315 314 314 315 314 313 313 313 312 311 311 308
322 322 323 323 323 322 321 323 315 314 321 321 322 322 318 312 315 311 310 312 313 315 314 314 315 315 315 315 315 314 314 314 314 315 314 313 314 313 313 313 312 311 309 308 306
322 321 322 323 322 322 320 316 313 312 318 321 317 316 314 312 319 315 311 313 314 316 316 316 318 317 316 315 315 314 315 315 314 313 313 312 312 313 313 313 310 309 307 306 305
323 322 322 323 322 323 320 317 314 311 322 323 315 311 309 312 314 308 310 312 315 317 318 318 315 314 313 313 313 314 313 313 313 312 312 310 311 313 313 312 309 307 306 304 303
323 323 322 322 324 324 316 318 316 312 330 319 311 309 309 312 310 309 308 310 314 314 313 316 312 312 314 314 314 315 311 312 311 311 312 312 313 314 314 310 309 307 305 304 302
322 321 321 321 322 320 320 319 316 325 330 318 312 312 310 309 309 309 310 308 309 312 312 312 309 311 313 314 311 311 310 310 310 311 316 316 316 317 313 310 308 307 306 304 303
320 319 320 320 322 320 320 322 328 329 323 321 315 312 314 312 311 311 312 312 315 318 318 317 315 311 311 313 310 310 311 317 320 316 319 317 319 318 317 309 308 307 305 303 301
316 312 314 319 319 320 321 325 328 323 323 319 317 314 319 316 314 312 315 317 317 317 318 319 317 314 309 313 315 312 318 320 322 322 320 315 317 319 311 308 307 305 303 302 300
312 310 309 313 318 318 322 325 325 322 319 320 322 323 322 321 322 320 318 318 317 316 318 315 317 309 309 309 311 318 320 318 322 315 319 316 315 313 310 309 307 305 302 300 298
307 307 310 310 312 317 318 320 319 317 316 318 322 320 319 318 320 319 316 316 316 312 311 318 320 318 314 311 312 314 312 319 317 316 309 313 313 313 313 311 307 303 300 298 297
306 309 309 309 314 315 316 316 313 312 314 317 317 318 316 315 314 314 315 316 317 312 314 317 318 316 315 313 315 310 311 311 313 314 315 315 312 311 311 311 306 302 300 298 296
306 308 307 314 312 313 314 312 310 311 312 313 314 315 315 313 312 313 314 313 314 314 316 315 316 315 315 311 310 310 312 313 318 315 314 315 315 309 305 303 302 301 300 297 295
306 309 308 311 312 312 311 311 311 311 311 312 313 313 311 312 312 311 311 311 311 313 314 313 313 308 307 307 312 314 313 313 313 312 315 316 314 310 303 302 302 301 298 296 295
304 306 308 309 310 311 311 311 311 310 311 311 310 309 310 310 310 310 309 311 309 310 308 309 311 306 307 306 307 306 307 307 308 311 309 308 307 305 306 305 303 299 297 296 294
302 303 306 309 309 309 309 308 309 310 309 308 309 309 309 308 306 306 307 307 308 306 306 307 303 305 305 306 305 304 304 305 305 304 305 304 304 304 305 299 295 292 292 294 294
300 300 301 304 305 309 308 307 307 306 307 307 307 305 306 307 307 304 305 304 304 303 304 305 298 300 295 301 301 302 301 301 301 301 301 301 301 300 295 295 295 295 292 291 290
296 296 300 303 304 306 308 307 306 306 305 303 304 304 304 303 300 299 299 299 301 301 301 300 297 291 292 298 296 293 297 298 299 298 299 299 298 294 294 294 292 291 291 291 291

GFSSW_925_thetae_033.txt.gz
Theta_e
309 310 310 310 310 309 309 309 309 309 309 309 309 309 308 308 308 312 320 317 315 314 316 315 315 316 317 317 318 315 313 314 317 316 315 314 315 314 314 316 314 315 314 314 319
310 310 310 310 310 310 310 310 310 310 311 311 311 312 311 308 309 316 316 314 313 312 316 315 315 316 314 318 317 314 314 316 316 314 316 314 314 313 313 312 312 312 312 315 317
313 313 312 311 312 312 312 313 314 314 314 313 314 314 313 309 318 316 314 312 310 311 316 316 316 316 316 316 318 317 316 317 317 317 316 316 314 314 314 313 312 312 312 311 315
315 315 314 314 314 315 315 315 316 315 314 314 314 314 314 310 312 313 314 312 311 312 316 316 315 316 316 316 316 318 316 316 316 316 314 316 316 315 314 314 312 311 311 311 310
315 315 314 315 315 316 317 318 318 318 318 316 315 313 313 316 314 317 312 312 311 314 315 315 315 315 316 315 314 315 314 316 314 313 313 313 314 315 314 312 311 311 311 310 309
315 315 315 316 317 318 319 320 320 320 319 318 316 313 314 314 314 316 315 311 313 314 314 314 314 314 314 314 314 313 313 313 313 313 312 313 312 314 312 310 310 310 309 308 308
316 316 316 318 319 320 321 322 322 321 318 315 313 312 317 312 314 315 313 315 315 314 314 315 315 315 314 314 313 313 313 312 312 312 312 311 314 313 311 309 309 309 308 307 307
316 317 318 319 320 322 323 323 322 320 314 311 310 315 311 311 312 312 314 313 314 315 314 314 314 313 314 313 312 313 312 313 313 313 313 312 312 312 310 309 310 310 308 308 305
317 318 318 319 322 322 322 323 321 314 313 311 316 318 314 308 311 310 312 312 314 313 312 313 313 313 312 312 312 312 311 312 313 313 313 312 311 311 310 309 309 309 307 306 304
318 318 319 321 323 322 322 322 318 314 319 316 315 313 310 311 310 310 310 312 312 312 311 312 310 311 309 309 312 313 312 313 313 313 312 312 310 310 309 309 310 309 306 304 303
318 319 320 322 323 322 322 320 319 318 315 318 317 312 317 310 310 311 310 311 311 312 312 311 310 311 311 310 311 312 313 313 312 312 311 311 311 311 310 310 310 306 304 304 303
320 321 322 323 323 322 320 319 316 316 319 317 319 321 314 312 313 310 310 310 312 312 312 312 312 311 311 313 313 313 313 312 311 312 312 311 311 310 311 308 306 305 304 303 303
321 321 321 322 323 321 320 316 313 312 316 318 314 316 313 314 317 312 309 310 311 312 312 312 313 313 315 314 314 314 313 313 313 311 309 309 308 309 307 306 306 304 303 303 302
322 322 322 322 321 322 319 317 315 313 319 321 315 309 309 310 312 308 309 311 314 314 314 315 314 314 314 313 312 313 311 311 312 310 310 308 310 309 308 307 305 303 301 300 300
323 323 322 322 323 322 318 317 316 313 323 316 310 308 308 311 309 308 307 309 313 312 312 314 311 311 312 311 310 312 310 310 310 310 310 310 310 309 308 309 306 303 302 300 299
323 323 322 321 321 320 319 318 317 321 326 314 309 310 308 308 308 308 308 307 308 311 310 310 309 310 311 311 311 309 310 309 308 308 312 311 311 313 309 308 306 304 302 301 299
323 322 321 321 322 320 320 320 326 328 321 315 312 310 310 309 308 310 310 309 312 316 314 314 312 310 310 312 309 309 309 314 315 312 315 315 316 314 312 306 306 303 301 299 298
321 319 320 319 320 319 320 323 326 323 323 315 312 311 314 311 310 309 312 313 312 314 315 318 318 311 309 312 313 309 311 315 317 319 316 313 317 316 306 305 303 301 300 299 297
316 313 315 317 319 320 321 325 322 322 318 320 319 320 319 319 320 311 310 314 315 312 315 314 315 309 309 308 311 315 316 315 316 313 311 314 313 308 306 304 302 300 298 297 297
311 309 310 313 316 316 318 322 319 317 316 317 321 319 319 317 319 317 316 313 312 311 311 316 314 315 310 311 310 314 313 315 315 313 312 312 311 310 309 306 303 299 298 296 295
309 309 310 310 314 314 316 316 314 313 314 316 317 318 315 314 316 314 314 314 312 311 313 315 315 313 313 313 314 308 311 313 314 314 315 310 309 310 310 306 303 299 298 296 295
306 309 308 313 311 313 314 312 310 310 310 312 313 314 315 313 312 311 312 312 312 310 315 314 313 309 313 311 309 309 311 310 315 313 311 313 313 307 306 303 300 300 298 295 293
306 308 309 313 310 311 310 312 311 310 311 312 312 312 311 309 311 310 310 310 311 312 313 312 310 302 304 303 309 312 312 312 312 311 310 310 309 303 301 302 300 299 297 295 292
304 309 307 309 309 309 310 310 311 310 310 311 311 310 310 310 309 310 310 310 308 308 309 309 310 303 305 302 307 306 306 305 308 307 303 306 305 303 301 302 300 300 296 293 289
302 302 305 308 310 310 309 309 309 310 309 309 310 309 308 308 308 308 307 308 307 308 306 306 303 306 305 304 302 302 303 303 302 303 302 302 301 300 300 297 295 292 293 293 292
299 300 300 302 306 308 309 308 307 309 309 307 308 308 308 307 305 302 303 303 303 302 303 303 297 298 293 300 300 300 300 298 298 298 299 299 301 299 295 294 293 291 290 289 289
296 296 300 302 303 307 306 307 305 305 302 304 306 305 303 301 300 299 299 298 300 300 300 300 296 289 292 297 293 291 295 296 297 297 297 297 296 291 292 293 290 290 290 290 290

GFSSW_925_thetae_036.txt.gz
Theta_e
309 309 310 310 310 309 309 309 309 309 309 310 310 311 311 310 309 310 315 317 315 314 315 314 315 316 316 315 316 311 310 313 315 315 315 313 313 312 311 314 312 314 312 312 317
310 310 310 310 310 310 310 310 310 311 311 312 312 313 313 313 311 316 316 314 313 312 315 315 314 315 313 316 315 311 310 312 313 314 317 315 314 313 313 311 312 311 311 313 316
311 312 311 311 312 312 313 314 314 314 313 314 314 314 314 312 315 315 313 313 312 312 315 315 315 315 315 316 317 315 313 314 316 315 314 315 313 313 314 313 311 311 311 311 314
313 313 313 313 313 314 315 316 317 317 316 316 315 314 313 313 314 313 314 312 310 312 316 315 314 315 315 315 315 318 315 315 316 315 314 315 314 313 313 313 312 310 309 309 308
314 314 314 314 315 316 317 317 319 319 319 318 317 315 313 315 314 316 313 312 311 312 315 314 314 314 315 314 313 314 314 314 313 311 311 312 312 312 312 311 309 308 308 307 305
315 315 314 315 316 317 318 320 321 321 320 319 316 314 314 313 315 316 315 311 312 314 314 314 313 312 314 313 313 312 312 311 311 312 311 312 311 312 311 310 309 308 306 303 304
315 315 315 316 317 318 321 322 322 322 320 315 311 312 317 311 314 316 313 313 315 313 313 314 314 314 313 313 312 312 313 311 311 311 311 310 313 312 310 309 308 307 303 304 303
316 316 316 318 318 321 322 322 323 322 315 311 310 315 309 312 312 314 314 313 315 315 314 314 314 313 314 313 311 312 311 312 312 313 312 311 312 311 309 308 308 306 302 303 302
316 316 317 318 319 322 322 322 322 319 313 312 315 316 312 308 310 311 312 312 313 312 312 313 313 311 311 310 309 311 311 311 312 312 313 312 311 310 309 308 307 305 302 302 302
316 317 318 318 321 322 322 322 320 315 318 315 316 314 310 309 310 310 311 312 311 310 310 311 308 309 307 308 311 312 312 311 312 312 311 311 309 309 308 308 308 301 301 302 301
317 317 318 319 322 322 322 320 319 318 317 316 313 311 311 310 310 310 310 311 311 311 310 311 309 309 308 308 309 311 312 311 310 310 311 311 310 310 308 308 305 302 302 302 301
317 318 319 320 322 322 321 319 318 317 319 316 316 316 312 311 312 310 310 310 311 311 310 311 311 310 310 310 311 311 312 311 310 311 311 310 310 307 305 304 303 302 302 301 299
318 319 321 321 322 322 320 319 315 314 318 317 315 318 314 315 317 314 308 308 310 310 311 311 313 311 313 314 314 313 313 313 314 310 308 308 308 308 306 304 303 302 300 299 298
319 320 321 321 322 322 318 317 315 315 318 320 316 310 309 311 312 307 308 310 312 312 310 312 311 313 313 313 312 314 310 311 311 310 311 307 310 308 307 305 303 301 299 298 297
320 321 321 321 322 320 320 318 317 313 324 315 311 308 308 312 308 307 307 309 313 312 312 315 312 312 313 313 309 311 309 310 310 309 309 308 308 308 306 307 303 301 299 298 297
321 322 323 321 321 321 318 317 316 320 325 313 308 309 307 307 308 307 308 307 307 310 310 310 308 309 310 310 310 308 309 308 306 306 310 308 310 311 309 307 303 301 300 298 296
322 322 323 322 321 320 318 319 324 327 318 314 310 308 308 307 307 308 308 308 310 314 314 313 311 310 309 311 308 308 309 314 314 311 314 312 311 311 307 305 304 301 299 297 295
322 323 321 321 320 319 320 324 326 322 321 313 310 309 311 308 308 308 310 312 309 313 314 317 318 310 309 311 312 309 309 311 308 316 314 312 317 314 304 302 301 300 298 297 296
321 318 318 319 319 319 322 326 326 319 319 316 315 314 313 316 312 309 309 311 312 310 317 315 315 308 308 307 310 313 314 312 314 310 315 313 310 308 304 302 300 299 297 296 295
315 312 313 318 319 317 323 324 322 318 316 318 320 320 319 319 319 310 310 311 314 310 310 313 312 313 310 311 308 313 310 314 312 308 313 311 311 310 307 304 301 298 297 295 295
313 313 311 315 315 314 322 319 318 314 314 316 317 318 317 315 317 315 316 314 310 313 311 313 312 312 311 313 313 309 313 313 312 312 308 307 310 307 307 305 302 298 296 294 294
308 315 310 313 313 314 316 315 312 311 310 312 313 314 313 312 312 311 312 311 309 311 314 313 311 308 312 310 308 309 309 310 315 311 309 311 311 307 306 302 300 298 297 294 293
309 308 309 312 316 313 312 314 311 310 310 310 312 312 311 312 314 309 309 310 310 311 312 312 308 302 305 304 308 310 311 310 309 308 305 313 309 303 303 301 299 299 297 295 291
306 307 307 310 308 313 312 312 313 309 310 311 310 310 310 309 308 309 311 310 308 309 309 309 306 305 307 302 306 307 306 305 305 305 304 308 306 304 302 301 300 299 297 293 289
303 306 306 313 312 310 310 310 311 311 309 309 310 310 310 310 309 308 308 308 305 308 306 306 304 306 306 304 304 303 305 304 304 304 304 303 301 301 299 297 295 293 294 292 289
301 302 301 306 309 310 310 309 309 309 308 308 310 309 307 308 307 305 304 305 305 304 304 302 299 299 294 300 301 302 300 300 301 301 300 300 300 298 295 294 292 290 293 292 291
296 296 300 304 307 309 308 308 307 307 303 305 307 305 306 305 302 299 299 300 301 301 301 302 297 294 297 296 293 293 294 296 295 295 295 294 295 290 293 293 292 289 288 288 288

GFSSW_925_thetae_042.txt.gz
Theta_e
308 309 309 309 309 309 309 309 309 310 310 311 312 312 313 314 315 314 311 315 314 312 313 314 314 315 315 313 311 306 307 308 312 311 314 313 313 312 309 310 310 311 311 310 313
308 309 309 309 310 310 309 310 310 311 312 313 314 314 314 314 315 314 314 314 313 313 313 313 313 313 310 314 312 307 305 308 309 312 315 313 313 312 312 310 312 310 309 311 311
309 309 309 310 310 310 311 311 312 314 314 315 316 316 315 313 313 312 313 314 312 312 314 315 314 313 313 314 315 311 309 309 313 312 313 313 312 311 312 313 310 311 308 305 303
309 309 310 311 311 312 314 315 316 316 317 318 318 317 315 313 318 313 312 311 311 313 314 314 311 313 312 313 313 315 314 312 314 313 313 314 312 312 311 311 308 306 303 302 301
309 311 313 313 313 314 315 316 318 319 320 320 319 316 313 312 313 316 312 311 310 312 314 312 313 312 313 312 312 315 314 312 312 310 310 310 311 312 310 307 303 303 302 300 300
311 312 314 314 314 314 316 317 320 320 321 321 318 314 312 312 314 316 315 312 311 312 313 312 311 310 312 312 312 310 311 310 309 310 310 311 310 310 307 304 303 302 300 299 299
313 314 314 314 314 315 317 319 321 321 321 320 315 313 313 311 313 315 314 312 312 312 311 312 312 312 311 312 310 311 311 308 309 309 309 308 312 310 309 302 301 301 299 299 298
315 315 315 315 315 316 317 320 321 321 321 316 311 313 312 312 312 315 314 314 313 313 313 313 313 311 312 310 307 310 308 310 310 310 310 310 313 312 304 304 302 300 299 298 297
316 316 316 316 316 317 318 321 321 320 318 314 314 312 313 309 311 313 313 312 313 312 311 312 311 308 309 308 307 306 310 309 309 309 311 310 311 310 303 303 301 299 298 297 296
317 317 317 316 316 317 319 321 320 317 315 315 316 314 311 309 309 310 311 312 310 309 310 308 305 307 306 306 313 310 310 309 309 310 310 310 310 307 301 301 300 298 297 296 296
318 317 317 316 317 318 320 321 318 317 317 315 314 313 310 309 309 309 310 310 309 307 308 308 306 308 308 306 308 308 309 310 309 309 311 310 308 305 302 301 300 298 297 296 295
318 317 316 316 317 318 320 317 318 316 319 315 315 310 311 309 310 308 310 310 309 310 308 308 307 307 306 306 308 309 310 310 309 309 310 309 308 304 302 301 300 298 297 296 295
318 318 317 316 318 320 320 321 318 315 318 317 315 316 315 310 314 311 308 308 309 309 308 310 312 308 309 309 309 309 309 310 312 309 307 306 307 306 302 300 299 298 297 296 294
318 317 317 317 319 319 320 321 321 315 319 318 316 314 311 312 317 309 308 308 309 310 309 309 309 311 309 310 309 312 309 310 312 310 313 306 312 307 303 301 300 298 296 295 293
319 318 317 317 320 319 320 321 319 314 324 316 314 308 309 317 309 308 306 309 310 311 310 315 311 311 312 312 310 314 308 308 308 308 308 309 309 307 303 303 301 298 296 294 293
320 318 317 317 320 320 319 317 316 319 324 317 307 308 311 307 307 306 307 306 308 310 309 312 307 309 311 308 309 305 308 306 304 305 310 309 309 309 306 305 301 298 296 295 293
323 320 318 318 319 320 314 316 323 327 316 313 310 307 310 306 307 308 308 308 312 313 312 310 310 308 307 308 307 308 311 315 311 310 313 307 307 308 307 304 301 300 297 294 293
323 322 319 318 319 319 314 323 326 323 320 309 308 307 309 306 307 307 308 311 307 310 311 314 316 309 307 310 310 309 311 314 310 311 311 308 314 313 303 300 300 299 296 294 292
321 319 319 318 320 319 318 327 325 321 319 310 309 308 308 307 306 308 307 309 311 307 314 314 317 306 307 307 309 309 311 308 309 301 309 310 308 305 301 300 298 297 295 294 292
319 318 319 319 320 318 321 323 323 319 316 310 317 309 309 310 308 307 307 307 310 307 310 313 314 309 307 307 307 310 308 314 309 308 306 307 309 307 305 302 299 298 296 294 293
318 317 318 320 319 320 324 321 322 318 315 314 316 315 308 314 309 307 308 309 309 308 309 309 312 311 310 310 310 311 312 309 309 305 304 302 305 303 305 302 300 299 297 295 294
313 319 314 319 321 321 323 322 320 318 313 315 315 316 314 314 313 308 310 311 308 309 312 310 310 310 312 307 305 308 310 311 312 310 306 307 310 303 303 301 300 299 297 294 293
314 313 311 311 323 322 318 319 317 313 314 314 315 315 312 314 318 314 312 308 308 310 313 311 310 305 308 308 307 309 307 309 306 303 305 307 308 302 301 300 299 298 296 294 292
309 313 309 310 311 319 319 318 318 313 314 313 314 312 314 315 313 313 309 308 307 310 309 310 309 308 314 310 308 310 309 306 307 305 307 310 309 306 304 302 299 298 297 294 293
308 310 309 313 314 315 318 316 318 315 312 313 313 313 316 315 314 312 309 307 306 307 305 310 313 306 305 303 304 304 308 307 307 310 310 310 308 304 304 302 299 297 296 295 294
305 306 303 307 311 312 314 314 316 314 312 312 311 313 312 312 313 310 308 308 309 304 305 302 306 301 299 300 300 304 304 304 306 304 304 303 304 301 299 298 296 294 293 292 292
296 297 302 308 310 312 310 309 311 313 310 310 311 312 312 311 306 303 304 306 306 306 304 303 300 301 306 294 298 306 300 303 303 301 303 305 305 290 293 294 293 292 290 291 292

GFSSW_925_thetae_045.txt.gz
Theta_e
308 309 309 309 309 309 309 309 310 311 311 312 313 313 314 314 315 315 311 314 313 312 312 313 314 314 314 312 309 305 307 308 310 310 313 312 313 311 309 310 309 309 310 307 308
309 308 309 310 310 310 310 311 312 313 312 314 315 315 315 315 315 313 314 314 313 312 313 312 312 312 310 314 311 307 306 307 308 309 313 313 312 312 312 311 311 310 308 304 305
309 308 309 310 311 311 313 314 315 315 314 316 317 317 316 314 313 311 314 313 312 312 313 314 314 312 312 313 313 309 309 308 311 311 312 313 312 310 312 313 310 310 305 303 302
310 309 309 310 311 312 313 315 316 317 317 318 318 317 316 314 317 312 312 311 312 313 314 314 311 312 311 312 312 314 312 311 313 312 312 313 311 312 311 310 305 302 302 301 301
310 310 310 310 311 312 314 315 317 318 318 319 319 317 314 311 313 315 312 311 310 313 313 311 312 311 311 311 311 315 313 311 312 310 309 309 311 311 309 302 302 301 301 300 299
311 311 313 313 313 313 314 316 317 319 320 320 320 316 312 314 314 315 315 312 311 312 312 312 310 310 310 311 311 310 310 309 309 310 309 311 309 309 305 302 302 302 300 298 297
313 314 314 314 314 314 315 317 318 320 320 320 318 313 311 313 314 315 315 312 311 311 311 312 311 311 310 311 309 309 311 308 309 308 309 307 311 309 303 301 302 300 299 297 296
315 314 315 315 315 314 316 317 319 320 320 318 312 313 313 312 312 315 314 313 312 312 312 312 312 309 311 308 306 310 308 312 309 309 309 309 313 305 302 303 301 300 298 297 296
315 315 316 316 315 315 316 317 320 320 319 316 315 312 314 309 312 313 313 313 312 311 311 311 310 308 308 308 309 306 312 309 309 308 310 310 312 305 301 302 301 299 297 297 296
317 317 316 316 316 316 317 319 321 318 316 315 315 314 311 310 309 311 311 312 309 309 310 308 305 307 305 308 314 311 309 308 309 310 310 310 310 303 301 301 300 298 297 296 295
318 318 318 317 316 316 317 321 317 316 316 315 314 314 310 308 308 308 310 310 307 307 310 307 308 311 309 307 308 307 309 311 309 308 311 310 309 305 301 301 300 298 297 296 295
318 318 318 317 316 317 319 318 317 315 319 315 315 311 310 308 308 307 310 309 308 308 306 307 308 308 306 306 308 307 309 309 308 308 308 309 309 303 302 301 300 298 296 295 294
319 318 318 317 316 317 317 320 318 315 317 317 314 314 313 308 310 308 308 307 308 308 307 309 311 306 307 306 307 307 308 308 311 309 306 306 308 305 301 300 299 297 296 295 294
320 319 318 317 317 317 317 319 320 315 318 317 316 316 310 310 314 309 308 308 308 309 307 308 308 310 308 309 308 310 307 308 310 312 315 306 313 308 303 301 299 298 296 295 293
323 320 318 317 318 318 318 318 321 314 320 314 314 309 310 317 310 308 306 308 309 309 310 315 310 310 311 311 309 312 308 309 308 308 309 309 311 308 302 303 301 298 296 294 293
323 321 319 317 318 319 319 320 315 319 323 317 308 308 313 308 307 305 307 306 307 309 309 312 307 308 310 308 309 304 307 305 303 306 312 310 310 310 306 305 302 298 296 295 293
321 323 320 317 317 320 316 316 324 325 315 313 311 308 313 307 307 308 308 308 312 314 312 310 309 307 306 307 306 308 311 315 313 312 316 306 308 309 305 303 302 300 297 295 293
320 321 320 317 317 319 315 323 324 321 318 308 307 308 314 307 307 308 308 311 308 310 311 315 317 308 306 308 309 308 311 316 316 312 311 308 313 312 304 300 299 299 297 294 292
321 320 318 318 317 318 318 324 321 319 317 309 307 309 309 306 307 307 308 309 312 307 317 313 315 306 306 306 308 309 311 309 309 301 311 310 308 306 302 300 298 297 296 295 293
319 319 318 318 318 317 321 321 320 318 312 310 317 311 311 307 307 307 307 307 311 308 309 312 314 309 306 307 308 308 307 313 309 312 311 308 308 309 306 303 298 297 297 295 293
318 320 319 318 317 320 322 319 319 318 314 312 316 315 309 309 308 307 308 308 307 308 309 310 312 312 307 309 311 311 312 309 309 307 308 306 306 302 305 302 300 299 298 296 294
317 321 316 318 320 321 323 319 316 318 317 317 314 317 311 310 308 307 308 307 305 308 312 309 310 310 310 307 305 309 310 309 312 310 305 307 309 302 302 301 300 299 298 296 294
317 317 314 318 324 323 320 321 319 318 320 320 318 315 313 314 314 308 305 307 306 309 312 310 311 309 309 309 306 309 308 308 306 305 306 309 307 302 301 300 299 298 297 295 294
311 317 310 310 313 321 321 321 322 315 317 317 316 314 314 315 313 313 310 308 307 308 310 311 310 314 320 313 309 310 308 307 310 306 308 310 307 305 304 302 299 298 297 294 293
310 314 311 313 315 318 319 318 318 319 314 314 314 317 318 321 317 316 309 307 307 309 306 311 317 307 304 304 305 305 309 307 310 311 312 310 309 305 305 304 301 298 295 294 293
309 308 305 309 312 316 316 319 318 317 315 316 318 317 315 320 320 318 309 309 311 305 308 305 312 307 305 301 301 305 304 307 307 307 308 305 307 303 302 297 297 297 295 295 293
297 298 303 309 310 315 316 316 316 316 311 312 314 316 315 314 308 305 304 307 307 308 307 310 305 311 313 298 301 310 304 304 304 302 306 307 307 296 297 297 297 296 293 292 291

GFSSW_925_thetae_048.txt.gz
Theta_e
308 308 308 309 309 309 309 309 310 310 311 312 314 315 315 315 315 315 315 314 313 312 312 313 314 314 316 318 314 312 316 317 317 318 318 317 317 315 314 315 315 313 313 308 308
309 309 309 309 309 309 310 310 311 312 312 314 316 316 316 316 315 314 314 314 313 312 313 314 315 314 317 318 317 316 316 315 314 316 318 317 316 316 316 316 315 313 309 308 308
309 309 309 309 309 310 310 311 312 314 314 316 317 317 316 315 317 314 314 313 312 312 312 313 314 315 316 317 318 315 315 312 314 315 316 317 316 315 316 316 315 314 310 307 307
311 310 309 309 310 311 311 312 313 314 315 317 318 318 316 314 320 312 312 312 312 313 314 314 315 316 316 316 317 317 315 314 316 315 315 317 315 315 315 314 309 308 306 306 306
312 312 311 311 311 312 312 313 315 316 317 318 319 318 315 316 318 315 312 311 311 313 314 315 315 316 316 315 316 318 316 315 315 315 314 312 315 315 312 308 306 306 305 305 305
313 312 313 313 313 313 313 314 316 318 318 319 319 318 313 319 314 315 314 311 310 313 313 314 314 314 315 315 315 314 314 314 314 314 313 314 313 313 308 307 307 306 305 304 303
313 313 313 313 314 314 314 315 316 319 319 319 318 315 315 319 315 316 314 312 311 311 313 312 313 314 315 315 312 313 315 315 314 312 313 312 313 313 308 307 307 306 304 303 302
314 314 314 314 314 314 314 316 317 319 320 319 314 313 319 313 313 315 314 312 312 311 311 312 312 314 315 312 312 315 314 319 314 312 311 313 319 310 307 308 308 306 304 303 301
315 314 315 315 315 315 315 316 318 320 318 317 316 314 319 310 313 314 313 313 311 311 311 311 312 314 313 316 317 315 321 317 316 312 313 314 318 310 306 308 307 305 303 302 301
315 316 316 316 316 316 315 317 319 319 316 315 315 317 314 312 309 312 312 312 312 312 313 314 313 315 313 317 321 321 317 315 317 314 313 315 316 309 307 307 307 304 303 302 301
317 317 317 317 317 316 316 319 319 320 317 319 319 318 312 308 309 309 310 310 310 313 316 312 316 317 318 317 316 316 315 317 314 311 314 316 316 315 307 307 306 304 303 302 300
318 318 318 318 317 316 317 320 318 316 321 318 317 314 309 308 310 309 310 313 312 314 311 312 316 317 313 313 313 313 316 317 313 311 312 315 315 314 307 307 306 304 303 302 300
319 319 318 318 317 316 318 319 318 315 322 320 318 319 315 309 313 311 310 311 312 312 312 316 316 312 311 311 312 313 315 316 316 313 311 312 317 313 306 304 303 302 302 301 301
321 320 319 318 317 317 318 316 318 314 321 321 319 320 310 311 314 309 310 311 310 313 311 313 311 310 311 312 312 315 311 312 312 314 320 310 323 315 309 306 303 302 301 301 299
322 322 320 318 318 317 317 317 318 316 326 319 316 310 310 318 313 309 307 310 313 312 313 316 312 313 314 314 311 317 311 312 313 315 315 314 317 319 307 309 306 303 302 301 299
321 321 321 318 317 318 317 318 318 322 325 319 312 313 315 311 309 307 309 309 310 312 311 315 309 312 314 310 311 309 311 310 310 313 319 318 317 319 312 311 308 304 302 300 298
320 320 320 318 318 318 319 317 323 325 318 317 316 314 318 313 310 310 311 312 317 319 320 316 313 309 308 312 308 311 315 321 321 320 321 310 314 318 311 307 307 304 302 300 297
316 320 320 319 318 318 318 322 321 323 322 311 310 314 320 312 312 310 312 316 315 316 319 323 323 312 310 317 315 312 318 324 327 322 319 310 316 315 308 305 304 305 302 300 297
316 313 318 318 317 318 321 322 323 322 320 314 311 316 318 311 314 312 314 317 316 314 322 321 322 309 308 308 313 312 314 314 314 309 319 317 313 311 306 305 303 303 301 300 298
316 314 316 318 317 315 322 320 320 319 318 316 319 317 319 315 315 314 314 314 315 313 314 316 323 309 308 309 310 311 312 316 316 324 325 316 314 316 309 308 303 302 301 300 298
316 315 313 316 316 318 321 319 319 318 315 316 319 319 317 314 316 314 317 313 314 312 314 313 316 314 309 311 314 312 313 313 316 317 322 320 314 309 311 310 305 304 302 301 298
315 315 314 318 319 320 321 319 317 318 318 319 316 319 316 312 312 314 316 316 310 312 314 315 316 318 313 309 306 313 314 314 320 315 312 313 317 306 307 307 307 305 303 302 299
314 313 315 318 322 321 319 320 319 318 319 320 320 317 316 314 315 314 314 309 309 312 315 314 318 324 318 311 308 311 312 313 313 315 319 321 320 305 305 305 305 305 303 301 300
315 315 313 311 315 320 320 321 321 318 318 318 320 317 314 317 314 320 314 309 309 311 313 314 318 322 326 320 315 314 313 312 314 320 319 317 315 308 308 307 305 304 303 301 300
312 314 314 315 315 313 319 320 321 321 318 317 318 319 321 322 320 319 319 310 309 310 311 314 319 318 319 310 313 315 314 313 314 315 319 318 313 310 309 308 306 305 304 302 301
312 311 306 312 313 316 316 320 320 320 316 319 319 319 318 321 321 322 319 315 316 308 310 310 319 317 317 309 308 311 314 313 313 314 314 314 313 310 308 306 306 304 302 302 301
298 299 307 312 313 315 316 315 317 317 315 316 316 318 318 317 315 307 306 310 311 311 311 312 316 315 320 313 307 312 312 312 312 312 314 315 314 306 305 306 306 305 302 302 301